Weather History for KGUC - August, 2014

Change the Weather History Date:

Friday, August 29, 2014

  Actual Average Record
Temperature  
Mean Temperature 54 °F -  
Max Temperature 71 °F 72 °F 84 °F (2013)
Min Temperature 37 °F 39 °F 28 °F (2004)
Degree Days  
Heating Degree Days 11    
Growing Degree Days 4 (Base 50)    
Moisture  
Dew Point 38 °F    
Average Humidity 60    
Maximum Humidity 87    
Minimum Humidity 28    
Precipitation  
Precipitation 0.03 in - - ()
Sea Level Pressure  
Sea Level Pressure 30.34 in    
Wind  
Wind Speed 3 mph (WNW)    
Max Wind Speed 22 mph    
Max Gust Speed 29 mph    
Visibility 10 miles    
Events      
Averages and records for this station are not official NWS values.
T = Trace of Precipitation, MM = Missing Value Source: NWS Daily Summary

Daily Weather History Graph

Daily Weather History Graph

Search for Another Location

Airport or City:

Trip Planner

Search our weather history database for the weather conditions in past years. The results will help you decide how hot, cold, wet, or windy it might be!

Date:

Astronomy

Aug. 29, 2014 Rise Set
Actual Time 6:34 AM MDT 7:42 PM MDT
Civil Twilight 6:07 AM MDT 8:09 PM MDT
Nautical Twilight 5:34 AM MDT 8:41 PM MDT
Astronomical Twilight 5:00 AM MDT 9:15 PM MDT
Moon 10:23 AM MDT (8/29) 9:45 PM MDT (8/29)
Length of Visible Light 14h 02m
Length of Day
13h 07m
Waxing Crescent, 15% of the Moon is Illuminated
Aug 29
Waxing Crescent
Sep 2
First Quarter
Sep 8
Full
Sep 15
Last Quarter
Sep 24
New

Hourly Weather History & Observations

Time (MDT) Temp. Windchill Dew Point Humidity Pressure Visibility Wind Dir Wind Speed Gust Speed Precip Events Conditions
12:15 AM 48.2 °F - 37.4 °F 66% 30.36 in 10.0 mi Calm Calm - N/A   Clear
12:35 AM 46.4 °F - 37.4 °F 71% 30.37 in 10.0 mi Calm Calm - N/A   Clear
12:55 AM 46.4 °F - 37.4 °F 71% 30.37 in 10.0 mi Calm Calm - N/A   Clear
1:15 AM 44.6 °F - 37.4 °F 76% 30.36 in 10.0 mi Calm Calm - N/A   Clear
1:35 AM 44.6 °F 42.2 °F 37.4 °F 76% 30.36 in 10.0 mi NNW 4.6 mph - N/A   Clear
1:55 AM 44.6 °F 43.1 °F 37.4 °F 76% 30.36 in 10.0 mi NNW 3.5 mph - N/A   Clear
2:15 AM 44.6 °F - 37.4 °F 76% 30.36 in 10.0 mi Calm Calm - N/A   Clear
2:35 AM 42.8 °F - 37.4 °F 81% 30.36 in 10.0 mi Calm Calm - N/A   Clear
2:55 AM 42.8 °F 41.1 °F 37.4 °F 81% 30.36 in 10.0 mi NNE 3.5 mph - N/A   Clear
3:15 AM 42.8 °F 41.1 °F 35.6 °F 76% 30.37 in 10.0 mi NNW 3.5 mph - N/A   Clear
3:35 AM 42.8 °F - 35.6 °F 76% 30.37 in 10.0 mi Calm Calm - N/A   Clear
3:55 AM 41.0 °F - 35.6 °F 81% 30.36 in 10.0 mi Calm Calm - N/A   Clear
4:15 AM 39.2 °F - 35.6 °F 87% 30.37 in 10.0 mi Calm Calm - N/A   Clear
4:35 AM 41.0 °F - 35.6 °F 81% 30.36 in 10.0 mi Calm Calm - N/A   Clear
4:55 AM 41.0 °F - 35.6 °F 81% 30.37 in 10.0 mi Calm Calm - N/A   Clear
5:15 AM 39.2 °F - 35.6 °F 87% 30.37 in 10.0 mi Calm Calm - N/A   Clear
5:35 AM 39.2 °F - 35.6 °F 87% 30.38 in 10.0 mi Calm Calm - N/A   Clear
5:55 AM 39.2 °F 37.0 °F 35.6 °F 87% 30.38 in 7.0 mi North 3.5 mph - N/A   Clear
6:15 AM 39.2 °F - 33.8 °F 81% 30.39 in 10.0 mi Calm Calm - N/A   Clear
6:35 AM 39.2 °F 37.0 °F 33.8 °F 81% 30.39 in 10.0 mi North 3.5 mph - N/A   Clear
6:55 AM 37.4 °F - 33.8 °F 87% 30.40 in 10.0 mi Calm Calm - N/A   Clear
7:15 AM 37.4 °F - 33.8 °F 87% 30.40 in 10.0 mi Calm Calm - N/A   Clear
7:35 AM 39.2 °F - 35.6 °F 87% 30.40 in 10.0 mi Calm Calm - N/A   Clear
7:55 AM 41.0 °F - 35.6 °F 81% 30.41 in 10.0 mi Calm Calm - N/A   Clear
8:15 AM 42.8 °F - 37.4 °F 81% 30.40 in 10.0 mi Calm Calm - N/A   Clear
8:35 AM 44.6 °F - 39.2 °F 81% 30.40 in 10.0 mi Calm Calm - N/A   Clear
8:55 AM 46.4 °F - 37.4 °F 71% 30.40 in 10.0 mi Calm Calm - N/A   Clear
9:15 AM 48.2 °F - 39.2 °F 71% 30.40 in 10.0 mi ENE 3.5 mph - N/A   Clear
9:35 AM 50.0 °F - 39.2 °F 66% 30.40 in 10.0 mi Calm Calm - N/A   Clear
9:55 AM 51.8 °F - 39.2 °F 62% 30.40 in 10.0 mi Calm Calm - N/A   Clear
10:15 AM 53.6 °F - 41.0 °F 62% 30.39 in 10.0 mi Calm Calm - N/A   Clear
10:35 AM 55.4 °F - 41.0 °F 58% 30.39 in 10.0 mi Calm Calm - N/A   Clear
10:55 AM 57.2 °F - 41.0 °F 55% 30.38 in 10.0 mi Calm Calm - N/A   Clear
11:15 AM 57.2 °F - 41.0 °F 55% 30.37 in 10.0 mi West 5.8 mph - N/A   Clear
11:35 AM 60.8 °F - 41.0 °F 48% 30.36 in 10.0 mi SW 6.9 mph - N/A   Clear
11:55 AM 62.6 °F - 42.8 °F 48% 30.35 in 10.0 mi SW 9.2 mph - N/A   Clear
12:15 PM 64.4 °F - 39.2 °F 40% 30.34 in 10.0 mi West 5.8 mph - N/A   Clear
12:35 PM 64.4 °F - 39.2 °F 40% 30.33 in 10.0 mi SSW 5.8 mph - N/A   Clear
12:55 PM 66.2 °F - 37.4 °F 35% 30.33 in 10.0 mi WSW 3.5 mph - N/A   Clear
1:15 PM 66.2 °F - 35.6 °F 32% 30.32 in 10.0 mi SSE 4.6 mph - N/A   Clear
1:35 PM 69.8 °F - 35.6 °F 28% 30.31 in 10.0 mi SSW 8.1 mph - N/A   Clear
1:55 PM 69.8 °F - 35.6 °F 28% 30.31 in 10.0 mi South 3.5 mph - N/A   Clear
2:15 PM 69.8 °F - 37.4 °F 31% 30.30 in 10.0 mi WSW 5.8 mph - N/A   Clear
2:35 PM 69.8 °F - 35.6 °F 28% 30.29 in 10.0 mi SSW 5.8 mph - N/A   Clear
2:55 PM 71.6 °F - 37.4 °F 29% 30.28 in 10.0 mi SSW 8.1 mph - N/A   Clear
3:35 PM 71.6 °F - 37.4 °F 29% 30.26 in 10.0 mi WSW 8.1 mph - N/A   Clear
3:55 PM 71.6 °F - 37.4 °F 29% 30.25 in 10.0 mi WSW 9.2 mph - N/A   Clear
4:15 PM 71.6 °F - 37.4 °F 29% 30.25 in 10.0 mi WSW 11.5 mph - N/A   Clear
4:35 PM 69.8 °F - 37.4 °F 31% 30.25 in 10.0 mi WSW 6.9 mph - N/A   Clear
4:55 PM 69.8 °F - 39.2 °F 33% 30.25 in 10.0 mi WSW 10.4 mph - N/A   Clear
5:15 PM 68.0 °F - 37.4 °F 33% 30.25 in 10.0 mi WSW 10.4 mph 17.3 mph N/A   Clear
5:35 PM 66.2 °F - 39.2 °F 37% 30.25 in 10.0 mi SW 8.1 mph - N/A   Clear
5:55 PM 66.2 °F - 39.2 °F 37% 30.25 in 10.0 mi West 3.5 mph - N/A   Clear
6:15 PM 68.0 °F - 37.4 °F 33% 30.26 in 10.0 mi NNE 6.9 mph - N/A   Mostly Cloudy
6:35 PM 68.0 °F - 39.2 °F 35% 30.26 in 10.0 mi NNE 10.4 mph - N/A   Overcast
6:55 PM 64.4 °F - 42.8 °F 45% 30.28 in 10.0 mi NNE 21.9 mph 28.8 mph N/A   Overcast
7:15 PM 62.6 °F - 39.2 °F 42% 30.28 in 10.0 mi NNE 8.1 mph - 0.03 in   Overcast
7:35 PM 64.4 °F - 39.2 °F 40% 30.28 in 10.0 mi North 11.5 mph - 0.03 in   Overcast
7:55 PM 62.6 °F - 42.8 °F 48% 30.28 in 10.0 mi NNE 6.9 mph - 0.03 in   Mostly Cloudy
8:15 PM 60.8 °F - 42.8 °F 52% 30.29 in 10.0 mi NNW 5.8 mph - N/A   Partly Cloudy
8:35 PM 59.0 °F - 42.8 °F 55% 30.31 in 10.0 mi NNE 4.6 mph - N/A   Partly Cloudy
8:55 PM 60.8 °F - 42.8 °F 52% 30.32 in 9.0 mi ENE 8.1 mph - N/A   Mostly Cloudy
9:15 PM 57.2 °F - 41.0 °F 55% 30.33 in 10.0 mi West 3.5 mph - N/A   Partly Cloudy
9:35 PM 55.4 °F - 42.8 °F 63% 30.34 in 10.0 mi NW 3.5 mph - N/A   Clear
9:55 PM 55.4 °F - 42.8 °F 63% 30.34 in 10.0 mi NW 3.5 mph - N/A   Clear
10:15 PM 53.6 °F - 42.8 °F 67% 30.34 in 10.0 mi North 3.5 mph - N/A   Clear
10:35 PM 53.6 °F - 42.8 °F 67% 30.34 in 10.0 mi North 3.5 mph - N/A   Clear
10:55 PM 51.8 °F - 42.8 °F 71% 30.35 in 10.0 mi North 3.5 mph - N/A   Clear
11:15 PM 50.0 °F - 41.0 °F 71% 30.35 in 10.0 mi North 8.1 mph - N/A   Clear
11:35 PM 48.2 °F - 39.2 °F 71% 30.35 in 10.0 mi North 6.9 mph - N/A   Clear
11:55 PM 48.2 °F - 39.2 °F 71% 30.35 in 10.0 mi Calm Calm - N/A   Clear